User: anonymous
Location: Caltech
(34.1382°N, 118.1253°W)
Time: 02:49:45
(UTC-07:00)
Language:

GPS 2-04 Rocket1 - Orbit

View from above orbital plane
View from above orbital plane
View from above satellite
View from above satellite

Ground track
Ground track

The orbit data is extracted from the following two-line orbital elements,

1 20303U 89085B   14261.75458495  .00010284  00000-0  48591-3 0  8690
2 20303 035.6319 137.3999 0138524 010.0799 041.9936 15.10557799348047
Epoch (UTC): 18 September 2014 18:06:36
Eccentricity: 0.0138524
inclination: 35.6319°
perigee height: 439 km
apogee height: 630 km
right ascension of ascending node: 137.3999°
argument of perigee: 10.0799°
revolutions per day: 15.10557799
mean anomaly at epoch: 41.9936°
orbit number at epoch: 34804

The dashed part of the orbit path shows where the satellite is in the earth's shadow,  

DLR